• Em Portugal
  • Lista de países
  • Para 7 dias
  • Temperatura da água
  • Mapas de satélite
  • Mapa do tempo
  • Widgets de tempo
  • user-avatar
    Iniciar Sessão

    Previsão horária em Kinice

    Hoje, 18 Outubro, Quinta-feira

    Tempo Temperatura Precipitação Vento Pressão Humidade
    00:00 +13°C° 0 mm 2 m/s 752 mmHg 65%
    01:00 +13°C° 0 mm 1 m/s 752 mmHg 65%
    02:00 +13°C° 0 mm 1 m/s 752 mmHg 66%
    03:00 +12°C° 0 mm 1 m/s 752 mmHg 67%
    04:00 +12°C° 0 mm 1 m/s 752 mmHg 68%
    05:00 +12°C° 0 mm 1 m/s 752 mmHg 69%
    06:00 +12°C° 0 mm 1 m/s 752 mmHg 70%
    07:00 +12°C° 0 mm 1 m/s 752 mmHg 71%
    08:00 +14°C° 0 mm 1 m/s 752 mmHg 65%
    09:00 +15°C° 0 mm 1 m/s 752 mmHg 60%
    10:00 +18°C° 0 mm 1 m/s 752 mmHg 54%
    11:00 +19°C° 0 mm 1 m/s 752 mmHg 51%
    12:00 +20°C° 0 mm 1 m/s 752 mmHg 49%
    13:00 +20°C° 0 mm 2 m/s 751 mmHg 47%
    14:00 +19°C° 0 mm 2 m/s 751 mmHg 50%
    15:00 +18°C° 0 mm 2 m/s 751 mmHg 54%
    16:00 +18°C° 0 mm 2 m/s 751 mmHg 58%
    17:00 +16°C° 0 mm 2 m/s 751 mmHg 64%
    18:00 +15°C° 0 mm 2 m/s 752 mmHg 71%
    19:00 +14°C° 0 mm 2 m/s 752 mmHg 77%
    20:00 +13°C° 0 mm 2 m/s 752 mmHg 81%
    21:00 +13°C° 0 mm 2 m/s 752 mmHg 86%
    22:00 +12°C° 0 mm 2 m/s 753 mmHg 90%
    23:00 +12°C° 0 mm 2 m/s 753 mmHg 92%

    Amanhã, 19 Outubro, Sexta-feira

    Tempo Temperatura Precipitação Vento Pressão Humidade
    00:00 +12°C° 0 mm 2 m/s 753 mmHg 93%
    01:00 +12°C° 0 mm 2 m/s 753 mmHg 95%
    02:00 +10°C° 0 mm 2 m/s 753 mmHg 95%
    03:00 +10°C° 0 mm 2 m/s 753 mmHg 95%
    04:00 +10°C° 0 mm 2 m/s 753 mmHg 94%
    05:00 +10°C° 0 mm 2 m/s 754 mmHg 93%
    06:00 +9°C° 0 mm 2 m/s 754 mmHg 92%
    07:00 +10°C° 0 mm 1 m/s 754 mmHg 91%
    08:00 +12°C° 0 mm 2 m/s 755 mmHg 81%
    09:00 +13°C° 0 mm 2 m/s 755 mmHg 71%
    10:00 +14°C° 0 mm 2 m/s 755 mmHg 61%
    11:00 +15°C° 0 mm 2 m/s 755 mmHg 56%
    12:00 +16°C° 0 mm 2 m/s 755 mmHg 52%
    13:00 +16°C° 0 mm 2 m/s 755 mmHg 48%
    14:00 +15°C° 0 mm 2 m/s 755 mmHg 51%
    15:00 +15°C° 0 mm 1 m/s 755 mmHg 53%
    16:00 +14°C° 0 mm 1 m/s 755 mmHg 56%
    17:00 +13°C° 0 mm 1 m/s 756 mmHg 61%
    18:00 +12°C° 0 mm 1 m/s 756 mmHg 66%
    19:00 +11°C° 0 mm 1 m/s 756 mmHg 71%
    20:00 +10°C° 0 mm 1 m/s 756 mmHg 73%
    21:00 +10°C° 0 mm 1 m/s 756 mmHg 76%
    22:00 +9°C° 0 mm 1 m/s 756 mmHg 78%
    23:00 +9°C° 0 mm 1 m/s 756 mmHg 80%

    Depois de amanhã, 20 Outubro, Sábado

    Tempo Temperatura Precipitação Vento Pressão Humidade
    00:00 +8°C° 0 mm 1 m/s 757 mmHg 82%
    01:00 +7°C° 0 mm 2 m/s 757 mmHg 84%
    02:00 +7°C° 0 mm 2 m/s 757 mmHg 86%
    03:00 +7°C° 0 mm 2 m/s 757 mmHg 88%
    04:00 +7°C° 0 mm 2 m/s 757 mmHg 90%
    05:00 +7°C° 0 mm 2 m/s 757 mmHg 91%
    06:00 +7°C° 0 mm 2 m/s 757 mmHg 92%
    07:00 +7°C° 0 mm 2 m/s 757 mmHg 93%
    08:00 +8°C° 0 mm 2 m/s 758 mmHg 85%
    09:00 +10°C° 0 mm 3 m/s 758 mmHg 78%
    10:00 +11°C° 0 mm 4 m/s 758 mmHg 70%
    11:00 +12°C° 0 mm 4 m/s 758 mmHg 67%
    12:00 +12°C° 0 mm 4 m/s 758 mmHg 65%
    13:00 +12°C° 0 mm 4 m/s 758 mmHg 62%
    14:00 +12°C° 0 mm 4 m/s 758 mmHg 63%
    15:00 +11°C° 0 mm 4 m/s 758 mmHg 65%
    16:00 +11°C° 0 mm 4 m/s 758 mmHg 67%
    17:00 +11°C° 0 mm 4 m/s 758 mmHg 70%
    18:00 +10°C° 0 mm 4 m/s 758 mmHg 74%
    19:00 +10°C° 0 mm 4 m/s 758 mmHg 78%
    20:00 +10°C° 0 mm 4 m/s 758 mmHg 80%
    21:00 +10°C° 0 mm 3 m/s 758 mmHg 82%
    22:00 +10°C° 0 mm 3 m/s 758 mmHg 84%
    23:00 +9°C° 0 mm 3 m/s 758 mmHg 87%

    21 Outubro, Domingo

    Tempo Temperatura Precipitação Vento Pressão Humidade
    00:00 +9°C° 0 mm 3 m/s 758 mmHg 89%
    01:00 +8°C° 0 mm 2 m/s 758 mmHg 92%
    02:00 +8°C° 0 mm 2 m/s 758 mmHg 93%
    03:00 +8°C° 0 mm 2 m/s 758 mmHg 94%
    04:00 +7°C° 0 mm 2 m/s 758 mmHg 95%
    05:00 +7°C° 0 mm 2 m/s 758 mmHg 95%
    06:00 +7°C° 0 mm 2 m/s 758 mmHg 95%
    07:00 +8°C° 0 mm 2 m/s 758 mmHg 95%
    08:00 +9°C° 0 mm 3 m/s 758 mmHg 91%
    09:00 +10°C° 0 mm 3 m/s 758 mmHg 86%
    10:00 +12°C° 0 mm 3 m/s 758 mmHg 82%
    11:00 +12°C° 0 mm 3 m/s 758 mmHg 80%
    12:00 +12°C° 0 mm 3 m/s 758 mmHg 78%
    13:00 +12°C° 0 mm 3 m/s 758 mmHg 77%
    14:00 +12°C° 0 mm 3 m/s 757 mmHg 76%
    15:00 +12°C° 0 mm 3 m/s 757 mmHg 76%
    16:00 +13°C° 0 mm 2 m/s 757 mmHg 76%
    17:00 +13°C° 0 mm 2 m/s 757 mmHg 77%
    18:00 +11°C° 0 mm 3 m/s 756 mmHg 78%
    19:00 +11°C° 0 mm 3 m/s 756 mmHg 79%
    20:00 +11°C° 0 mm 3 m/s 756 mmHg 76%
    21:00 +11°C° 0 mm 3 m/s 756 mmHg 73%
    22:00 +11°C° 0 mm 3 m/s 756 mmHg 71%
    23:00 +11°C° 0 mm 4 m/s 755 mmHg 68%

    22 Outubro, Segunda-feira

    Tempo Temperatura Precipitação Vento Pressão Humidade
    00:00 +11°C° 0 mm 4 m/s 755 mmHg 65%
    01:00 +11°C° 0 mm 4 m/s 755 mmHg 61%
    02:00 +11°C° 0 mm 4 m/s 754 mmHg 60%
    03:00 +11°C° 0 mm 4 m/s 754 mmHg 59%
    04:00 +10°C° 0 mm 4 m/s 753 mmHg 57%
    05:00 +10°C° 0 mm 4 m/s 753 mmHg 58%
    06:00 +10°C° 0 mm 4 m/s 753 mmHg 59%
    07:00 +10°C° 0 mm 4 m/s 753 mmHg 60%
    08:00 +10°C° 0.1 mm 4 m/s 753 mmHg 65%
    09:00 +10°C° 0.1 mm 4 m/s 753 mmHg 70%
    10:00 +11°C° 0.1 mm 4 m/s 754 mmHg 74%
    11:00 +11°C° 0.1 mm 4 m/s 754 mmHg 70%
    12:00 +12°C° 0.1 mm 4 m/s 754 mmHg 65%
    13:00 +13°C° 0.1 mm 4 m/s 754 mmHg 60%
    14:00 +12°C° 0 mm 4 m/s 754 mmHg 62%
    15:00 +12°C° 0 mm 4 m/s 754 mmHg 64%
    16:00 +11°C° 0 mm 4 m/s 753 mmHg 65%
    17:00 +10°C° 0 mm 4 m/s 753 mmHg 65%
    18:00 +10°C° 0 mm 4 m/s 753 mmHg 64%
    19:00 +8°C° 0 mm 4 m/s 753 mmHg 63%
    20:00 +8°C° 0 mm 4 m/s 753 mmHg 65%
    21:00 +7°C° 0 mm 4 m/s 753 mmHg 67%
    22:00 +6°C° 0 mm 4 m/s 753 mmHg 70%
    23:00 +6°C° 0.1 mm 4 m/s 753 mmHg 71%

    23 Outubro, Terça-feira

    Tempo Temperatura Precipitação Vento Pressão Humidade
    00:00 +6°C° 0.1 mm 4 m/s 752 mmHg 72%
    01:00 +6°C° 0.1 mm 4 m/s 752 mmHg 74%
    02:00 +6°C° 0.1 mm 4 m/s 751 mmHg 75%
    03:00 +6°C° 0.1 mm 4 m/s 751 mmHg 76%
    04:00 +6°C° 0.1 mm 4 m/s 750 mmHg 77%
    05:00 +5°C° 0.1 mm 4 m/s 750 mmHg 79%
    06:00 +5°C° 0.1 mm 4 m/s 749 mmHg 80%
    07:00 +5°C° 0.1 mm 4 m/s 748 mmHg 82%
    08:00 +6°C° 0.1 mm 4 m/s 748 mmHg 81%
    09:00 +6°C° 0.1 mm 5 m/s 748 mmHg 79%
    10:00 +7°C° 0.1 mm 5 m/s 747 mmHg 78%
    11:00 +7°C° 1 mm 5 m/s 746 mmHg 78%
    12:00 +7°C° 1 mm 6 m/s 746 mmHg 78%
    13:00 +7°C° 1 mm 6 m/s 745 mmHg 77%
    14:00 +7°C° 0.5 mm 6 m/s 745 mmHg 79%
    15:00 +7°C° 0.5 mm 6 m/s 744 mmHg 80%
    16:00 +7°C° 0.5 mm 6 m/s 744 mmHg 81%
    17:00 +6°C° 0.2 mm 5 m/s 744 mmHg 82%
    18:00 +6°C° 0.2 mm 5 m/s 744 mmHg 83%
    19:00 +6°C° 0.2 mm 4 m/s 744 mmHg 84%
    20:00 +5°C° 0 mm 4 m/s 744 mmHg 85%
    21:00 +5°C° 0 mm 3 m/s 744 mmHg 85%
    22:00 +4°C° 0 mm 3 m/s 744 mmHg 85%
    23:00 +4°C° 0 mm 3 m/s 745 mmHg 85%
    Mostrar mais